map of CJS home
CJS - Airport
Location
City:  Ciudad Juárez, Chihuahua, México
Name:Abraham González International Airport
ICAO:MMCS
IATA:CJS

Details
Type:Airport (Aerodrome, Airfield)
Use:Public/Civil, International (customs port of entry)
Latitude:31°38'10"N (31.636133)
Longitude:106°25'43"W (-106.428666)
Datum:WGS 1984
Elevation:3904 ft (1190 m)
Variation:8.18°E (WMM2015 magnetic declination)
-0.10° annual change
Runways:2
Longest:8858 × 148 ft (2700 × 45 m), paved

Time
Time Zone:UTC-7 (DST-6)
Local Time:

Weather
METAR:MMCS 272341Z 26015KT 10SM BKN200 29/10 A2954 RMK SLP902 57033 992 8/008

Related Locations
Nearby:
Farthest:RRG: 11401 mi / 18348 km
Plaine Corail [Sir Gaëtan Duval Airport (Plaine Corail Airport)], Rodrigues Island, MU

Find:

   beyond  
but within

Other Information
Maps:
NOTAMs:
Links:
Sources:

  
flag of México
flag of Chihuahua
  

Sectional Chart

Flight Planning
at skyvector.com

Satellite Image

Google Maps Satellite view

 

Copyright © 2004-2017 Karl L. Swartz. All rights reserved.
The Great Circle Mapper name and logo are trademarks of the Great Circle Mapper.
All other trademarks mentioned herein belong to their respective owners.
Please see credits for attibutions and further copyright information.

  Follow gcmap on Facebook Follow gcmap on Twitter Follow gcmap on Google+ GCmap on LinkedIn

hCard Microformat

Geo Microformat